QPF
0.07 0.05 0.03 0.03 0.03 0.04 0.04 0.06 0.08 0.09 0.10 0.12 0.11 0.09 0.07 0.07 0.06 0.05 0.05 0.04 0.04 0.03 0.03 0.04 0.04 0.02 0.03 0.03 0.02 0.02 0.03 0.04 0.04 0.02 0.02 0.02 0.03 0.07 0.08 0.05 0.03 0.02 0.03
0.02 0.02 0.02 0.03 0.04 0.05 0.05 0.06 0.06 0.06 0.07 0.07 0.06 0.05 0.04 0.04 0.05 0.05 0.05 0.05 0.05 0.03 0.03 0.03 0.02 0.02 0.03 0.03 0.03 0.03 0.03 0.05 0.07 0.04 0.04 0.04 0.02 0.02 0.04 0.04 0.03 0.04 0.04
0.02 0.03 0.04 0.05 0.04 0.04 0.04 0.04 0.04 0.03 0.03 0.03 0.04 0.04 0.04 0.03 0.03 0.05 0.06 0.06 0.06 0.06 0.05 0.04 0.03 0.03 0.02 0.02 0.02 0.02 0.02 0.04 0.05 0.04 0.03 0.05 0.02 0.01 0.01 0.02 0.03 0.04 0.04
0.03 0.05 0.05 0.05 0.06 0.06 0.06 0.06 0.05 0.04 0.03 0.03 0.03 0.03 0.03 0.03 0.03 0.04 0.05 0.05 0.06 0.06 0.06 0.05 0.05 0.05 0.04 0.05 0.04 0.02 0.03 0.04 0.04 0.03 0.03 0.02 0.02 0.01 0.02 0.02 0.01 0.02 0.04
0.03 0.04 0.03 0.04 0.05 0.06 0.08 0.08 0.07 0.05 0.04 0.04 0.04 0.03 0.03 0.03 0.03 0.03 0.04 0.04 0.05 0.07 0.08 0.07 0.08 0.09 0.09 0.07 0.06 0.04 0.03 0.05 0.05 0.05 0.03 0.02 0.02 0.01 0.01 0.02 0.02 0.02 0.02
0.05 0.08 0.05 0.03 0.04 0.05 0.07 0.09 0.08 0.08 0.07 0.07 0.06 0.06 0.05 0.03 0.03 0.04 0.04 0.04 0.04 0.05 0.06 0.05 0.05 0.06 0.07 0.07 0.06 0.04 0.03 0.04 0.05 0.04 0.03 0.03 0.03 0.02 0.02 0.02 0.02 0.01 0.01
0.03 0.02 0.02 0.02 0.03 0.03 0.04 0.06 0.08 0.10 0.12 0.11 0.10 0.11 0.11 0.08 0.05 0.03 0.03 0.04 0.05 0.06 0.06 0.04 0.04 0.03 0.04 0.04 0.05 0.04 0.03 0.02 0.03 0.04 0.03 0.02 0.03 0.05 0.05 0.02 0.02 0.01 0.01
0.01 0.01 0.02 0.02 0.02 0.02 0.03 0.04 0.05 0.08 0.09 0.09 0.08 0.09 0.09 0.07 0.05 0.05 0.05 0.04 0.04 0.03 0.03 0.04 0.04 0.04 0.03 0.04 0.05 0.05 0.04 0.03 0.04 0.04 0.03 0.02 0.03 0.04 0.05 0.04 0.02 0.02 0.02
0.03 0.02 0.02 0.01 0.01 0.01 0.02 0.04 0.05 0.06 0.07 0.08 0.11 0.13 0.13 0.09 0.06 0.04 0.04 0.03 0.02 0.02 0.02 0.02 0.02 0.02 0.03 0.04 0.04 0.05 0.06 0.04 0.05 0.05 0.04 0.04 0.04 0.04 0.05 0.05 0.03 0.02 0.01
0.01 0.02 0.02 0.01 0.02 0.02 0.02 0.03 0.04 0.04 0.05 0.07 0.09 0.10 0.10 0.07 0.04 0.03 0.03 0.03 0.02 0.02 0.02 0.02 0.03 0.02 0.03 0.03 0.03 0.04 0.05 0.04 0.04 0.04 0.03 0.03 0.03 0.04 0.06 0.06 0.04 0.02 0.01
0.01 0.01 0.02 0.02 0.02 0.02 0.02 0.02 0.02 0.03 0.04 0.06 0.09 0.08 0.05 0.03 0.02 0.02 0.02 0.02 0.02 0.02 0.02 0.02 0.03 0.04 0.03 0.03 0.02 0.02 0.03 0.04 0.05 0.04 0.04 0.03 0.02 0.03 0.04 0.05 0.05 0.03 0.02
0.00 0.01 0.01 0.01 0.02 0.01 0.01 0.01 0.02 0.04 0.06 0.09 0.13 0.10 0.05 0.03 0.02 0.02 0.02 0.02 0.02 0.01 0.01 0.02 0.03 0.04 0.03 0.03 0.02 0.02 0.03 0.04 0.05 0.04 0.05 0.04 0.03 0.03 0.04 0.04 0.04 0.04 0.03
0.00 0.00 0.01 0.01 0.01 0.01 0.01 0.01 0.02 0.03 0.05 0.09 0.08 0.04 0.03 0.03 0.02 0.02 0.02 0.02 0.02 0.01 0.01 0.02 0.03 0.03 0.03 0.03 0.03 0.03 0.04 0.04 0.03 0.03 0.04 0.04 0.03 0.02 0.03 0.05 0.03 0.02 0.02
0.00 0.00 0.00 0.00 0.00 0.01 0.01 0.01 0.02 0.02 0.03 0.04 0.04 0.03 0.03 0.03 0.02 0.02 0.01 0.01 0.01 0.01 0.01 0.01 0.02 0.02 0.03 0.03 0.04 0.03 0.03 0.04 0.04 0.04 0.05 0.04 0.03 0.02 0.03 0.04 0.04 0.02 0.02
0.00 0.00 0.00 0.00 0.01 0.01 0.01 0.02 0.02 0.02 0.03 0.03 0.03 0.02 0.02 0.02 0.02 0.02 0.01 0.01 0.01 0.01 0.02 0.02 0.02 0.02 0.02 0.03 0.03 0.03 0.03 0.04 0.04 0.03 0.04 0.03 0.03 0.03 0.04 0.05 0.05 0.04 0.03
0.00 0.00 0.00 0.00 0.00 0.01 0.01 0.01 0.01 0.01 0.01 0.01 0.02 0.01 0.01 0.01 0.02 0.02 0.02 0.02 0.02 0.02 0.02 0.01 0.01 0.02 0.02 0.02 0.02 0.03 0.03 0.03 0.03 0.03 0.04 0.04 0.05 0.05 0.06 0.05 0.04 0.04 0.04
0.00 0.00 0.00 0.00 0.00 0.00 0.01 0.01 0.01 0.01 0.01 0.01 0.01 0.01 0.01 0.01 0.01 0.01 0.01 0.01 0.02 0.02 0.03 0.03 0.03 0.03 0.02 0.02 0.02 0.02 0.03 0.04 0.03 0.03 0.03 0.04 0.05 0.05 0.05 0.05 0.04 0.04 0.04
0.00 0.00 0.00 0.00 0.00 0.00 0.00 0.01 0.01 0.01 0.01 0.01 0.01 0.01 0.01 0.01 0.01 0.01 0.01 0.01 0.01 0.02 0.02 0.02 0.03 0.02 0.02 0.02 0.02 0.02 0.03 0.04 0.04 0.04 0.03 0.03 0.04 0.04 0.05 0.04 0.03 0.03 0.03
0.01 0.00 0.00 0.00 0.00 0.00 0.01 0.00 0.01 0.01 0.01 0.01 0.01 0.01 0.01 0.01 0.01 0.00 0.01 0.01 0.01 0.01 0.01 0.01 0.01 0.01 0.01 0.01 0.01 0.02 0.03 0.03 0.03 0.04 0.04 0.03 0.04 0.05 0.06 0.05 0.05 0.04 0.04
0.01 0.00 0.00 0.01 0.00 0.00 0.00 0.01 0.01 0.00 0.01 0.01 0.01 0.01 0.01 0.01 0.00 0.00 0.00 0.00 0.00 0.01 0.01 0.01 0.00 0.00 0.00 0.00 0.01 0.02 0.02 0.02 0.02 0.03 0.03 0.05 0.04 0.06 0.07 0.07 0.06 0.06 0.06
0.01 0.01 0.01 0.01 0.01 0.01 0.01 0.01 0.01 0.01 0.01 0.02 0.02 0.02 0.01 0.01 0.01 0.00 0.00 0.00 0.00 0.00 0.00 0.00 0.00 0.00 0.00 0.01 0.01 0.01 0.01 0.01 0.02 0.03 0.04 0.05 0.06 0.07 0.08 0.08 0.08 0.09 0.08
0.01 0.01 0.01 0.01 0.01 0.01 0.01 0.01 0.01 0.02 0.01 0.02 0.02 0.02 0.02 0.01 0.01 0.01 0.01 0.01 0.01 0.00 0.01 0.01 0.01 0.01 0.01 0.01 0.01 0.02 0.01 0.01 0.02 0.03 0.05 0.06 0.06 0.07 0.07 0.06 0.06 0.06 0.04
0.01 0.01 0.01 0.01 0.01 0.01 0.02 0.02 0.02 0.02 0.01 0.02 0.02 0.02 0.02 0.01 0.02 0.01 0.01 0.02 0.02 0.02 0.02 0.02 0.01 0.01 0.01 0.01 0.01 0.02 0.01 0.01 0.01 0.02 0.03 0.04 0.05 0.05 0.06 0.06 0.05 0.04 0.03
0.01 0.01 0.02 0.02 0.03 0.03 0.03 0.02 0.02 0.02 0.02 0.02 0.03 0.02 0.02 0.02 0.03 0.03 0.02 0.03 0.03 0.03 0.03 0.02 0.02 0.01 0.01 0.01 0.01 0.01 0.01 0.01 0.02 0.02 0.02 0.03 0.05 0.05 0.05 0.05 0.06 0.06 0.04
0.03 0.03 0.03 0.03 0.04 0.04 0.04 0.03 0.02 0.02 0.02 0.02 0.02 0.02 0.03 0.03 0.03 0.03 0.04 0.04 0.03 0.02 0.02 0.02 0.02 0.02 0.01 0.01 0.01 0.02 0.02 0.02 0.03 0.03 0.02 0.03 0.03 0.03 0.04 0.04 0.05 0.06 0.06
0.06 0.06 0.04 0.03 0.04 0.03 0.04 0.04 0.02 0.02 0.03 0.03 0.03 0.03 0.03 0.02 0.02 0.03 0.03 0.04 0.03 0.03 0.03 0.03 0.03 0.02 0.02 0.02 0.02 0.02 0.02 0.02 0.03 0.03 0.02 0.02 0.03 0.03 0.03 0.03 0.04 0.05 0.06
MSLP
1015.43 1015.64 1015.91 1016.19 1016.44 1016.66 1016.81 1016.92 1016.99 1017.04 1017.10 1017.17 1017.27 1017.38 1017.49 1017.59 1017.66 1017.68 1017.65 1017.57 1017.47 1017.37 1017.29 1017.26 1017.29 1017.39 1017.54 1017.73 1017.93 1018.09 1018.19 1018.19 1018.07 1017.83 1017.48 1017.04 1016.55 1016.06 1015.62 1015.27 1015.03 1014.93 1014.96
1015.66 1015.87 1016.10 1016.34 1016.56 1016.74 1016.88 1016.98 1017.05 1017.11 1017.18 1017.26 1017.37 1017.49 1017.60 1017.70 1017.77 1017.79 1017.77 1017.71 1017.63 1017.54 1017.47 1017.45 1017.48 1017.57 1017.73 1017.92 1018.13 1018.33 1018.47 1018.53 1018.48 1018.32 1018.04 1017.66 1017.22 1016.75 1016.31 1015.92 1015.63 1015.47 1015.42
1015.79 1015.99 1016.20 1016.41 1016.59 1016.74 1016.85 1016.94 1017.02 1017.10 1017.18 1017.28 1017.40 1017.53 1017.65 1017.75 1017.82 1017.86 1017.85 1017.81 1017.75 1017.68 1017.63 1017.62 1017.65 1017.74 1017.89 1018.08 1018.29 1018.50 1018.68 1018.80 1018.83 1018.75 1018.56 1018.27 1017.90 1017.48 1017.07 1016.68 1016.37 1016.15 1016.04
1015.78 1015.98 1016.18 1016.35 1016.50 1016.63 1016.73 1016.83 1016.92 1017.01 1017.12 1017.25 1017.38 1017.52 1017.65 1017.76 1017.83 1017.88 1017.88 1017.86 1017.82 1017.77 1017.74 1017.73 1017.77 1017.85 1017.98 1018.16 1018.37 1018.58 1018.79 1018.95 1019.04 1019.05 1018.96 1018.77 1018.50 1018.17 1017.81 1017.46 1017.15 1016.90 1016.74
1015.62 1015.84 1016.02 1016.18 1016.32 1016.43 1016.54 1016.64 1016.76 1016.88 1017.03 1017.18 1017.34 1017.49 1017.62 1017.73 1017.81 1017.85 1017.87 1017.85 1017.83 1017.80 1017.78 1017.78 1017.81 1017.88 1017.99 1018.15 1018.34 1018.55 1018.76 1018.95 1019.10 1019.19 1019.20 1019.12 1018.96 1018.73 1018.45 1018.15 1017.87 1017.62 1017.44
1015.37 1015.59 1015.77 1015.93 1016.06 1016.17 1016.29 1016.42 1016.56 1016.73 1016.91 1017.09 1017.27 1017.44 1017.57 1017.68 1017.75 1017.79 1017.80 1017.79 1017.78 1017.76 1017.75 1017.75 1017.78 1017.84 1017.93 1018.06 1018.22 1018.41 1018.62 1018.83 1019.02 1019.18 1019.27 1019.29 1019.24 1019.11 1018.93 1018.70 1018.47 1018.24 1018.05
1015.07 1015.29 1015.47 1015.62 1015.75 1015.88 1016.02 1016.17 1016.36 1016.56 1016.77 1016.99 1017.18 1017.35 1017.49 1017.58 1017.64 1017.67 1017.68 1017.68 1017.67 1017.67 1017.67 1017.68 1017.71 1017.76 1017.83 1017.93 1018.06 1018.23 1018.42 1018.63 1018.85 1019.04 1019.20 1019.31 1019.35 1019.32 1019.22 1019.08 1018.90 1018.71 1018.52
1014.78 1015.00 1015.17 1015.31 1015.44 1015.58 1015.74 1015.92 1016.13 1016.36 1016.60 1016.83 1017.04 1017.21 1017.33 1017.42 1017.47 1017.49 1017.50 1017.51 1017.52 1017.54 1017.56 1017.59 1017.63 1017.68 1017.74 1017.82 1017.93 1018.06 1018.23 1018.43 1018.64 1018.85 1019.05 1019.22 1019.33 1019.37 1019.35 1019.28 1019.16 1019.01 1018.85
1014.53 1014.73 1014.88 1015.02 1015.14 1015.28 1015.45 1015.65 1015.87 1016.12 1016.37 1016.60 1016.81 1016.97 1017.09 1017.16 1017.21 1017.24 1017.26 1017.29 1017.33 1017.39 1017.45 1017.52 1017.59 1017.65 1017.71 1017.79 1017.87 1017.97 1018.11 1018.28 1018.48 1018.69 1018.90 1019.09 1019.24 1019.34 1019.38 1019.36 1019.28 1019.17 1019.04
1014.30 1014.48 1014.62 1014.73 1014.85 1014.99 1015.15 1015.34 1015.57 1015.81 1016.05 1016.27 1016.46 1016.61 1016.72 1016.79 1016.84 1016.89 1016.94 1017.02 1017.11 1017.22 1017.34 1017.47 1017.58 1017.68 1017.76 1017.84 1017.91 1017.99 1018.10 1018.24 1018.41 1018.60 1018.81 1019.00 1019.17 1019.29 1019.36 1019.37 1019.33 1019.25 1019.14
1014.06 1014.21 1014.34 1014.44 1014.55 1014.67 1014.81 1014.99 1015.19 1015.41 1015.63 1015.82 1015.99 1016.13 1016.23 1016.31 1016.38 1016.46 1016.56 1016.69 1016.86 1017.04 1017.24 1017.43 1017.61 1017.75 1017.87 1017.96 1018.04 1018.11 1018.20 1018.31 1018.45 1018.62 1018.80 1018.99 1019.15 1019.28 1019.36 1019.39 1019.38 1019.32 1019.23
1013.76 1013.90 1014.02 1014.11 1014.20 1014.30 1014.43 1014.58 1014.74 1014.92 1015.10 1015.26 1015.40 1015.52 1015.62 1015.72 1015.83 1015.95 1016.12 1016.32 1016.56 1016.83 1017.11 1017.38 1017.62 1017.82 1017.99 1018.11 1018.20 1018.28 1018.36 1018.46 1018.58 1018.73 1018.89 1019.06 1019.21 1019.34 1019.43 1019.47 1019.46 1019.42 1019.36
1013.36 1013.51 1013.62 1013.71 1013.80 1013.88 1013.98 1014.10 1014.22 1014.36 1014.49 1014.62 1014.73 1014.84 1014.94 1015.06 1015.21 1015.39 1015.62 1015.90 1016.22 1016.56 1016.92 1017.26 1017.57 1017.83 1018.04 1018.20 1018.33 1018.43 1018.52 1018.63 1018.75 1018.89 1019.05 1019.21 1019.36 1019.48 1019.57 1019.62 1019.63 1019.60 1019.55
1012.84 1013.01 1013.14 1013.23 1013.32 1013.39 1013.47 1013.55 1013.64 1013.73 1013.82 1013.91 1014.00 1014.10 1014.22 1014.37 1014.55 1014.79 1015.08 1015.42 1015.81 1016.22 1016.63 1017.03 1017.39 1017.70 1017.97 1018.17 1018.34 1018.48 1018.61 1018.75 1018.89 1019.05 1019.23 1019.40 1019.56 1019.69 1019.79 1019.85 1019.88 1019.87 1019.84
1012.20 1012.39 1012.54 1012.66 1012.75 1012.83 1012.89 1012.94 1013.00 1013.05 1013.11 1013.17 1013.25 1013.35 1013.48 1013.65 1013.88 1014.16 1014.49 1014.88 1015.31 1015.76 1016.21 1016.64 1017.04 1017.39 1017.69 1017.95 1018.17 1018.37 1018.55 1018.75 1018.95 1019.16 1019.37 1019.58 1019.78 1019.94 1020.07 1020.15 1020.20 1020.21 1020.20
1011.45 1011.67 1011.85 1011.99 1012.10 1012.17 1012.22 1012.26 1012.29 1012.32 1012.36 1012.41 1012.48 1012.59 1012.74 1012.93 1013.18 1013.49 1013.85 1014.26 1014.70 1015.16 1015.62 1016.06 1016.47 1016.85 1017.19 1017.49 1017.78 1018.05 1018.31 1018.59 1018.87 1019.16 1019.44 1019.72 1019.97 1020.19 1020.36 1020.48 1020.56 1020.60 1020.62
1010.61 1010.86 1011.06 1011.22 1011.34 1011.42 1011.47 1011.49 1011.51 1011.53 1011.56 1011.61 1011.69 1011.80 1011.97 1012.18 1012.45 1012.77 1013.13 1013.54 1013.97 1014.41 1014.85 1015.29 1015.70 1016.09 1016.46 1016.82 1017.17 1017.53 1017.89 1018.26 1018.65 1019.04 1019.42 1019.78 1020.11 1020.39 1020.62 1020.80 1020.92 1021.00 1021.04
1009.71 1009.96 1010.17 1010.34 1010.46 1010.55 1010.60 1010.62 1010.64 1010.66 1010.69 1010.74 1010.83 1010.96 1011.14 1011.36 1011.64 1011.95 1012.31 1012.69 1013.10 1013.51 1013.92 1014.33 1014.74 1015.14 1015.55 1015.96 1016.39 1016.83 1017.30 1017.79 1018.29 1018.80 1019.29 1019.75 1020.17 1020.53 1020.83 1021.07 1021.25 1021.37 1021.45
1008.73 1008.98 1009.19 1009.35 1009.48 1009.56 1009.61 1009.64 1009.65 1009.68 1009.72 1009.78 1009.88 1010.03 1010.22 1010.45 1010.72 1011.03 1011.36 1011.71 1012.08 1012.46 1012.84 1013.24 1013.64 1014.06 1014.50 1014.97 1015.48 1016.02 1016.60 1017.21 1017.83 1018.45 1019.06 1019.62 1020.14 1020.58 1020.96 1021.27 1021.50 1021.68 1021.80
1007.70 1007.92 1008.11 1008.27 1008.38 1008.46 1008.50 1008.53 1008.55 1008.58 1008.63 1008.70 1008.82 1008.97 1009.17 1009.40 1009.67 1009.96 1010.27 1010.60 1010.94 1011.29 1011.65 1012.03 1012.44 1012.89 1013.38 1013.92 1014.51 1015.15 1015.84 1016.56 1017.30 1018.03 1018.74 1019.40 1020.01 1020.54 1021.00 1021.37 1021.67 1021.91 1022.08
1006.62 1006.81 1006.97 1007.10 1007.20 1007.27 1007.30 1007.32 1007.34 1007.37 1007.42 1007.50 1007.62 1007.78 1007.98 1008.21 1008.47 1008.75 1009.04 1009.35 1009.68 1010.02 1010.38 1010.78 1011.21 1011.70 1012.25 1012.86 1013.54 1014.27 1015.06 1015.88 1016.72 1017.55 1018.35 1019.10 1019.79 1020.40 1020.93 1021.38 1021.75 1022.05 1022.28
1005.50 1005.66 1005.79 1005.90 1005.98 1006.02 1006.05 1006.05 1006.06 1006.08 1006.13 1006.20 1006.31 1006.47 1006.66 1006.88 1007.13 1007.41 1007.70 1008.02 1008.35 1008.71 1009.09 1009.53 1010.01 1010.55 1011.17 1011.85 1012.61 1013.43 1014.30 1015.21 1016.13 1017.03 1017.91 1018.74 1019.50 1020.18 1020.78 1021.30 1021.74 1022.11 1022.40
1004.36 1004.49 1004.61 1004.69 1004.74 1004.77 1004.77 1004.75 1004.74 1004.74 1004.76 1004.82 1004.91 1005.05 1005.23 1005.45 1005.70 1005.99 1006.30 1006.63 1007.00 1007.40 1007.84 1008.33 1008.88 1009.50 1010.19 1010.95 1011.78 1012.67 1013.61 1014.58 1015.55 1016.52 1017.45 1018.33 1019.15 1019.90 1020.57 1021.16 1021.67 1022.10 1022.47
1003.23 1003.34 1003.44 1003.50 1003.53 1003.52 1003.49 1003.45 1003.40 1003.37 1003.36 1003.39 1003.45 1003.57 1003.74 1003.96 1004.22 1004.53 1004.87 1005.26 1005.69 1006.16 1006.68 1007.25 1007.89 1008.59 1009.35 1010.19 1011.08 1012.03 1013.01 1014.02 1015.03 1016.03 1017.00 1017.92 1018.79 1019.59 1020.32 1020.98 1021.56 1022.06 1022.49
1002.10 1002.21 1002.28 1002.32 1002.32 1002.28 1002.22 1002.13 1002.04 1001.97 1001.92 1001.91 1001.95 1002.06 1002.22 1002.45 1002.74 1003.09 1003.49 1003.96 1004.47 1005.03 1005.65 1006.33 1007.06 1007.84 1008.69 1009.58 1010.53 1011.51 1012.52 1013.55 1014.58 1015.60 1016.59 1017.54 1018.45 1019.30 1020.08 1020.79 1021.43 1022.00 1022.49
1000.97 1001.06 1001.11 1001.12 1001.08 1001.00 1000.90 1000.77 1000.64 1000.52 1000.44 1000.40 1000.43 1000.52 1000.70 1000.96 1001.30 1001.72 1002.21 1002.77 1003.39 1004.07 1004.80 1005.59 1006.42 1007.29 1008.20 1009.15 1010.14 1011.14 1012.17 1013.20 1014.23 1015.25 1016.25 1017.22 1018.15 1019.04 1019.87 1020.63 1021.32 1021.94 1022.48
Thickness
5704 5702 5700 5699 5697 5695 5693 5692 5690 5689 5689 5688 5687 5687 5686 5685 5684 5683 5681 5681 5680 5679 5679 5678 5677 5678 5678 5678 5679 5678 5676 5674 5670 5672 5675 5677 5677 5676 5676 5676 5675 5675 5675
5697 5695 5693 5691 5689 5687 5686 5685 5684 5683 5682 5682 5681 5680 5679 5679 5678 5677 5676 5676 5675 5673 5673 5672 5672 5673 5673 5673 5673 5672 5672 5671 5668 5666 5667 5669 5670 5671 5670 5669 5669 5669 5669
5689 5686 5683 5682 5680 5679 5678 5678 5676 5676 5675 5674 5674 5672 5672 5672 5671 5671 5670 5670 5669 5668 5667 5667 5667 5667 5667 5667 5667 5667 5666 5667 5665 5662 5662 5663 5664 5664 5663 5662 5663 5662 5663
5681 5677 5675 5673 5672 5671 5671 5670 5669 5668 5667 5666 5666 5665 5665 5664 5664 5664 5663 5663 5662 5662 5662 5662 5662 5662 5662 5662 5662 5661 5661 5660 5659 5657 5656 5656 5657 5658 5656 5654 5654 5655 5656
5674 5670 5668 5667 5666 5665 5663 5662 5661 5660 5659 5658 5658 5657 5657 5657 5657 5656 5655 5655 5655 5655 5655 5656 5657 5657 5658 5657 5657 5656 5655 5654 5653 5651 5650 5649 5650 5649 5649 5649 5648 5648 5649
5666 5663 5661 5659 5658 5657 5656 5654 5653 5652 5651 5650 5649 5649 5649 5650 5650 5649 5648 5648 5648 5648 5648 5650 5651 5652 5652 5653 5653 5653 5652 5650 5648 5646 5645 5644 5645 5646 5645 5645 5642 5641 5640
5658 5656 5654 5653 5650 5649 5648 5646 5645 5644 5643 5642 5641 5641 5641 5642 5642 5642 5642 5641 5642 5642 5643 5643 5645 5647 5647 5647 5647 5647 5647 5648 5647 5645 5642 5642 5642 5643 5641 5640 5638 5637 5637
5651 5649 5647 5645 5643 5642 5640 5639 5637 5636 5635 5635 5634 5634 5634 5634 5635 5635 5635 5635 5635 5636 5637 5638 5638 5639 5641 5640 5640 5640 5640 5641 5642 5642 5641 5641 5641 5641 5639 5638 5636 5634 5634
5644 5642 5641 5639 5636 5634 5632 5631 5631 5629 5628 5627 5627 5627 5627 5627 5628 5628 5628 5627 5628 5630 5631 5632 5632 5633 5634 5634 5633 5632 5633 5635 5637 5637 5637 5637 5637 5637 5636 5633 5630 5627 5625
5637 5636 5634 5632 5630 5627 5626 5625 5624 5622 5621 5621 5620 5620 5620 5620 5622 5622 5621 5620 5621 5622 5624 5625 5626 5626 5627 5627 5626 5626 5625 5627 5629 5630 5630 5631 5632 5632 5631 5630 5627 5623 5620
5631 5629 5627 5625 5623 5621 5619 5617 5616 5615 5614 5613 5613 5613 5614 5614 5615 5615 5615 5613 5614 5615 5616 5617 5618 5619 5619 5620 5620 5620 5621 5622 5622 5622 5623 5624 5625 5626 5626 5626 5625 5622 5619
5624 5622 5620 5618 5617 5616 5611 5609 5608 5607 5606 5605 5605 5605 5606 5607 5608 5609 5608 5608 5608 5608 5608 5610 5611 5612 5613 5613 5613 5614 5615 5616 5616 5616 5616 5617 5619 5620 5621 5621 5621 5620 5619
5617 5614 5612 5611 5609 5608 5605 5603 5601 5599 5598 5598 5598 5598 5599 5599 5600 5601 5602 5602 5602 5602 5602 5603 5604 5604 5605 5606 5607 5608 5609 5609 5609 5610 5611 5612 5614 5615 5615 5615 5615 5615 5614
5610 5608 5606 5604 5603 5601 5599 5597 5595 5594 5593 5592 5592 5592 5592 5592 5592 5593 5594 5594 5594 5594 5594 5595 5596 5596 5597 5599 5600 5601 5603 5603 5604 5605 5607 5608 5608 5609 5609 5609 5608 5608 5606
5603 5602 5600 5599 5597 5596 5594 5592 5591 5590 5589 5588 5587 5586 5585 5585 5587 5587 5587 5586 5586 5586 5586 5585 5585 5587 5588 5590 5593 5595 5596 5597 5598 5599 5600 5601 5602 5603 5603 5603 5603 5602 5600
5597 5595 5594 5592 5591 5590 5588 5588 5588 5587 5586 5585 5584 5582 5582 5582 5582 5581 5581 5580 5580 5579 5577 5577 5578 5580 5582 5584 5586 5588 5590 5591 5593 5594 5594 5595 5595 5595 5596 5596 5596 5595 5594
5591 5589 5587 5586 5585 5583 5582 5581 5580 5580 5580 5580 5579 5578 5577 5577 5576 5575 5574 5574 5573 5572 5571 5572 5573 5575 5577 5579 5580 5582 5584 5586 5587 5588 5588 5589 5589 5589 5589 5589 5589 5589 5588
5585 5584 5582 5580 5579 5578 5576 5575 5573 5572 5572 5573 5573 5573 5572 5571 5570 5569 5568 5566 5564 5565 5566 5568 5569 5571 5573 5574 5576 5577 5579 5580 5581 5582 5583 5584 5584 5584 5583 5583 5583 5583 5582
5578 5576 5575 5574 5573 5572 5571 5569 5568 5567 5566 5566 5565 5566 5566 5565 5563 5562 5561 5560 5560 5561 5562 5564 5565 5567 5568 5570 5572 5573 5574 5575 5576 5577 5578 5578 5579 5578 5578 5578 5578 5577 5576
5572 5572 5570 5568 5567 5566 5564 5563 5562 5561 5560 5559 5559 5559 5558 5557 5555 5555 5555 5555 5556 5557 5558 5559 5561 5562 5564 5566 5567 5568 5569 5571 5572 5572 5573 5574 5574 5573 5573 5573 5572 5571 5570
5567 5565 5564 5562 5561 5560 5559 5557 5556 5556 5555 5555 5554 5554 5553 5552 5552 5551 5551 5551 5552 5553 5554 5555 5557 5558 5560 5561 5562 5563 5565 5566 5568 5568 5569 5569 5569 5569 5568 5568 5566 5566 5565
5562 5560 5558 5556 5556 5555 5553 5553 5552 5550 5550 5549 5549 5548 5547 5546 5546 5545 5546 5547 5548 5549 5551 5551 5553 5554 5556 5557 5558 5559 5560 5561 5563 5564 5564 5565 5565 5564 5563 5562 5561 5560 5558
5557 5555 5553 5552 5551 5551 5549 5548 5547 5546 5545 5544 5543 5542 5541 5540 5540 5540 5540 5541 5542 5544 5546 5547 5548 5550 5551 5553 5554 5555 5556 5556 5558 5559 5559 5559 5559 5559 5558 5557 5556 5554 5552
5552 5550 5549 5548 5547 5546 5544 5543 5543 5542 5541 5540 5539 5537 5536 5535 5535 5534 5535 5536 5536 5538 5540 5542 5544 5545 5546 5548 5549 5551 5552 5553 5554 5555 5555 5555 5554 5554 5553 5551 5550 5549 5547
5547 5545 5544 5543 5542 5542 5541 5540 5539 5538 5537 5536 5534 5532 5531 5530 5530 5530 5530 5531 5531 5532 5534 5536 5538 5539 5541 5542 5544 5545 5547 5548 5549 5549 5550 5549 5549 5548 5547 5545 5544 5543 5541
5544 5541 5540 5539 5538 5538 5537 5536 5535 5534 5532 5531 5530 5528 5527 5526 5525 5525 5526 5526 5526 5527 5528 5530 5532 5534 5535 5537 5538 5540 5541 5542 5542 5543 5543 5543 5542 5542 5541 5539 5538 5536 5535